| time (UTC) | temp F | wind direction | speed MPH | gust MPH | rain 1hr in | rain 24hr in | rain mn in | humidity % | barometer mb |
| 20260902164523 | 91 | 317 | 0.0 | 2.0 | 0.00 | 0.00 | 0.00 | 58 | 1015.8 |
| 20260902163034 | 90 | 317 | 0.0 | 2.0 | 0.00 | 0.00 | 0.00 | 60 | 1016.0 |
| 20260902161545 | 90 | 317 | 0.0 | 2.0 | 0.00 | 0.00 | 0.00 | 61 | 1016.1 |
| 20260902160117 | 89 | 317 | 0.0 | 3.0 | 0.00 | 0.00 | 0.00 | 61 | 1016.1 |
| 20260902154509 | 89 | 317 | 0.0 | 2.0 | 0.00 | 0.00 | 0.00 | 62 | 1016.2 |
| 20260902153021 | 88 | 317 | 0.0 | 2.0 | 0.00 | 0.00 | 0.00 | 65 | 1016.2 |
| 20260902151534 | 87 | 317 | 0.0 | 2.0 | 0.00 | 0.00 | 0.00 | 68 | 1016.2 |
| 20260902150045 | 85 | 317 | 0.0 | 1.0 | 0.00 | 0.00 | 0.00 | 70 | 1016.3 |
| 20260902144556 | 83 | 317 | 0.0 | 2.0 | 0.00 | 0.00 | 0.00 | 75 | 1016.3 |
| 20260902143005 | 81 | 317 | 0.0 | 2.0 | 0.00 | 0.00 | 0.00 | 78 | 1016.2 |
| 20260902141515 | 79 | 317 | 0.0 | 2.0 | 0.00 | 0.00 | 0.00 | 83 | 1016.2 |
| 20260902140035 | 78 | 317 | 0.0 | 2.0 | 0.00 | 0.00 | 0.00 | 86 | 1016.3 |
| 20260902134541 | 77 | 317 | 0.0 | 0.0 | 0.00 | 0.00 | 0.00 | 88 | 1016.3 |
| 20260902133105 | 76 | 318 | 0.0 | 0.0 | 0.00 | 0.00 | 0.00 | 88 | 1016.3 |
| 20260902131607 | 75 | 318 | 0.0 | 0.0 | 0.00 | 0.00 | 0.00 | 88 | 1016.2 |
| 20260902130013 | 75 | 318 | 0.0 | 0.0 | 0.00 | 0.00 | 0.00 | 87 | 1016.2 |
| 20260902124527 | 75 | 318 | 0.0 | 0.0 | 0.00 | 0.00 | 0.00 | 87 | 1016.1 |
| 20260902123047 | 75 | 318 | 0.0 | 0.0 | 0.00 | 0.00 | 0.00 | 86 | 1015.9 |
| 20260902121550 | 75 | 318 | 0.0 | 0.0 | 0.00 | 0.00 | 0.00 | 86 | 1015.8 |
| 20260902120103 | 75 | 318 | 0.0 | 0.0 | 0.00 | 0.00 | 0.00 | 85 | 1015.5 |
| 20260902114513 | 75 | 318 | 0.0 | 0.0 | 0.00 | 0.00 | 0.00 | 85 | 1015.4 |
| 20260902113027 | 75 | 318 | 0.0 | 0.0 | 0.00 | 0.00 | 0.00 | 84 | 1015.3 |
| 20260902111545 | 75 | 318 | 0.0 | 0.0 | 0.00 | 0.00 | 0.00 | 83 | 1015.3 |
| 20260902104503 | 76 | 318 | 0.0 | 0.0 | 0.00 | 0.00 | 0.00 | 83 | 1015.0 |
| 20260902103016 | 76 | 318 | 0.0 | 0.0 | 0.00 | 0.00 | 0.00 | 82 | 1014.9 |
| 20260902101529 | 76 | 318 | 0.0 | 0.0 | 0.00 | 0.00 | 0.00 | 82 | 1014.8 |
| 20260902100041 | 76 | 318 | 0.0 | 0.0 | 0.00 | 0.00 | 0.00 | 81 | 1014.6 |
| 20260902094555 | 77 | 318 | 0.0 | 0.0 | 0.00 | 0.00 | 0.00 | 81 | 1014.5 |
| 20260902093004 | 77 | 318 | 0.0 | 0.0 | 0.00 | 0.00 | 0.00 | 80 | 1014.5 |
| 20260902091518 | 77 | 318 | 0.0 | 0.0 | 0.00 | 0.00 | 0.00 | 81 | 1014.3 |
| 20260902090031 | 77 | 318 | 0.0 | 0.0 | 0.00 | 0.00 | 0.00 | 80 | 1014.4 |
| 20260902084545 | 77 | 318 | 0.0 | 0.0 | 0.00 | 0.00 | 0.00 | 79 | 1014.4 |
| 20260902083106 | 77 | 318 | 0.0 | 0.0 | 0.00 | 0.00 | 0.00 | 80 | 1014.4 |
| 20260902081509 | 77 | 318 | 0.0 | 0.0 | 0.00 | 0.00 | 0.00 | 80 | 1014.4 |
| 20260902080022 | 77 | 318 | 0.0 | 0.0 | 0.00 | 0.00 | 0.00 | 80 | 1014.4 |
| 20260902074538 | 77 | 318 | 0.0 | 0.0 | 0.00 | 0.00 | 0.00 | 80 | 1014.5 |
| 20260902073048 | 77 | 318 | 0.0 | 0.0 | 0.00 | 0.00 | 0.00 | 80 | 1014.4 |
| 20260902071603 | 77 | 318 | 0.0 | 0.0 | 0.00 | 0.00 | 0.00 | 80 | 1014.4 |
| 20260902070012 | 77 | 318 | 0.0 | 0.0 | 0.00 | 0.00 | 0.00 | 82 | 1014.5 |
| 20260902064526 | 77 | 318 | 0.0 | 0.0 | 0.00 | 0.00 | 0.00 | 81 | 1014.5 |
| 20260902063039 | 78 | 318 | 0.0 | 0.0 | 0.00 | 0.00 | 0.00 | 81 | 1014.5 |
| 20260902061610 | 78 | 318 | 0.0 | 0.0 | 0.00 | 0.00 | 0.00 | 81 | 1014.5 |
| 20260902060112 | 78 | 318 | 0.0 | 0.0 | 0.00 | 0.00 | 0.00 | 80 | 1014.5 |
| 20260902054520 | 79 | 318 | 0.0 | 0.0 | 0.00 | 0.00 | 0.00 | 80 | 1014.6 |
| 20260902053029 | 79 | 318 | 0.0 | 0.0 | 0.00 | 0.00 | 0.00 | 80 | 1014.4 |
| 20260902051544 | 79 | 318 | 0.0 | 0.0 | 0.00 | 0.00 | 0.00 | 79 | 1014.4 |
| 20260902050055 | 79 | 318 | 0.0 | 0.0 | 0.00 | 0.00 | 0.00 | 78 | 1014.3 |
| 20260902044505 | 80 | 318 | 0.0 | 0.0 | 0.00 | 0.00 | 0.00 | 77 | 1014.2 |
| 20260902043019 | 80 | 318 | 0.0 | 0.0 | 0.00 | 0.00 | 0.00 | 77 | 1014.1 |
| 20260902041532 | 81 | 318 | 0.0 | 0.0 | 0.00 | 0.00 | 0.00 | 77 | 1014.1 |
| 20260902040045 | 81 | 318 | 0.0 | 0.0 | 0.00 | 0.00 | 0.00 | 76 | 1014.1 |
| 20260902034558 | 81 | 318 | 0.0 | 0.0 | 0.00 | 0.00 | 0.00 | 76 | 1014.2 |
| 20260902033012 | 82 | 318 | 0.0 | 0.0 | 0.00 | 0.00 | 0.00 | 75 | 1014.3 |
| 20260902031522 | 82 | 318 | 0.0 | 0.0 | 0.00 | 0.00 | 0.00 | 73 | 1014.2 |
| 20260902030034 | 83 | 318 | 0.0 | 0.0 | 0.00 | 0.00 | 0.00 | 72 | 1014.1 |
| 20260902024549 | 83 | 317 | 0.0 | 0.0 | 0.00 | 0.00 | 0.00 | 71 | 1014.0 |
| 20260902023114 | 84 | 317 | 0.0 | 0.0 | 0.00 | 0.00 | 0.00 | 70 | 1013.8 |
| 20260902021516 | 85 | 317 | 0.0 | 0.0 | 0.00 | 0.00 | 0.00 | 67 | 1013.7 |
| 20260902020025 | 85 | 317 | 0.0 | 0.0 | 0.00 | 0.00 | 0.00 | 65 | 1013.7 |
| 20260902014540 | 86 | 317 | 0.0 | 0.0 | 0.00 | 0.00 | 0.00 | 64 | 1013.6 |
| 20260902013052 | 87 | 317 | 0.0 | 0.0 | 0.00 | 0.00 | 0.00 | 63 | 1013.5 |
| 20260902011603 | 87 | 317 | 0.0 | 0.0 | 0.00 | 0.00 | 0.00 | 61 | 1013.4 |
| 20260902010012 | 88 | 317 | 0.0 | 0.0 | 0.00 | 0.00 | 0.00 | 60 | 1013.3 |
| 20260902004527 | 89 | 317 | 0.0 | 0.0 | 0.00 | 0.00 | 0.00 | 59 | 1013.2 |
| 20260902003039 | 90 | 317 | 0.0 | 0.0 | 0.00 | 0.00 | 0.00 | 58 | 1013.1 |
| 20260902001552 | 90 | 317 | 0.0 | 0.0 | 0.00 | 0.00 | 0.00 | 58 | 1013.0 |
| 20260902000005 | 90 | 317 | 0.0 | 0.0 | 0.00 | 0.00 | 0.00 | 59 | 1013.1 |
| 20260901234515 | 90 | 317 | 0.0 | 0.0 | 0.00 | 0.00 | 0.00 | 59 | 1013.2 |
| 20260901233029 | 90 | 317 | 0.0 | 0.0 | 0.00 | 0.00 | 0.00 | 59 | 1013.3 |
| 20260901231542 | 91 | 317 | 0.0 | 0.0 | 0.00 | 0.00 | 0.00 | 57 | 1013.3 |
| 20260901230057 | 91 | 317 | 0.0 | 0.0 | 0.00 | 0.00 | 0.00 | 56 | 1013.4 |
| 20260901224505 | 91 | 317 | 0.0 | 2.0 | 0.00 | 0.00 | 0.00 | 56 | 1013.4 |
| 20260901223019 | 92 | 317 | 0.0 | 2.0 | 0.00 | 0.00 | 0.00 | 53 | 1013.3 |
| 20260901221542 | 92 | 317 | 0.0 | 2.0 | 0.00 | 0.00 | 0.00 | 55 | 1013.3 |
| 20260901220045 | 92 | 317 | 0.0 | 0.0 | 0.00 | 0.00 | 0.00 | 55 | 1013.4 |
| 20260901214559 | 94 | 317 | 0.0 | 2.0 | 0.00 | 0.00 | 0.00 | 49 | 1013.3 |
| 20260901213027 | 95 | 317 | 0.0 | 2.0 | 0.00 | 0.00 | 0.00 | 48 | 1013.3 |
| 20260901211535 | 95 | 317 | 0.0 | 2.0 | 0.00 | 0.00 | 0.00 | 45 | 1013.4 |
| 20260901210038 | 97 | 317 | 0.0 | 2.0 | 0.00 | 0.00 | 0.00 | 47 | 1013.5 |
| 20260901204548 | 96 | 317 | 0.0 | 2.0 | 0.00 | 0.00 | 0.00 | 49 | 1013.6 |
| 20260901203107 | 95 | 317 | 0.0 | 2.0 | 0.00 | 0.00 | 0.00 | 48 | 1013.8 |
| 20260901201511 | 94 | 317 | 0.0 | 1.0 | 0.00 | 0.00 | 0.00 | 50 | 1014.0 |
| 20260901200038 | 95 | 317 | 0.0 | 2.0 | 0.00 | 0.00 | 0.00 | 48 | 1014.1 |
| 20260901194538 | 92 | 317 | 0.0 | 0.0 | 0.00 | 0.00 | 0.00 | 54 | 1014.3 |
| 20260901193100 | 90 | 317 | 0.0 | 0.0 | 0.00 | 0.00 | 0.00 | 59 | 1014.4 |
| 20260901191500 | 92 | 317 | 0.0 | 0.0 | 0.00 | 0.00 | 0.00 | 55 | 1014.7 |
| 20260901190016 | 92 | 317 | 0.0 | 2.0 | 0.00 | 0.00 | 0.00 | 54 | 1014.8 |
| 20260901184533 | 94 | 317 | 0.0 | 2.0 | 0.00 | 0.00 | 0.00 | 52 | 1014.9 |
| 20260901183041 | 95 | 317 | 0.0 | 2.0 | 0.00 | 0.00 | 0.00 | 49 | 1015.2 |
| 20260901181552 | 95 | 317 | 0.0 | 2.0 | 0.00 | 0.00 | 0.00 | 50 | 1015.3 |
| 20260901180106 | 94 | 317 | 0.0 | 2.0 | 0.00 | 0.00 | 0.00 | 50 | 1015.4 |
| 20260901174514 | 93 | 317 | 1.0 | 3.0 | 0.00 | 0.00 | 0.00 | 51 | 1015.7 |
| 20260901173025 | 92 | 332 | 1.0 | 2.0 | 0.00 | 0.00 | 0.00 | 53 | 1015.9 |
| 20260901171538 | 92 | 333 | 0.0 | 2.0 | 0.00 | 0.00 | 0.00 | 55 | 1016.2 |
| 20260901170052 | 92 | 315 | 0.0 | 4.0 | 0.00 | 0.00 | 0.00 | 55 | 1016.3 |